SHILOH Weather Reports


time (UTC)temp
F
wind
direction
speed
knots
gust
knots
rain 1hr
in
rain 24hr
in
rain mn
in
humidity
%
barometer
mb
20260507084532 48 82 0.0 0.0 0.00 0.00 0.00 42 1010.3
20260507083030 48 82 0.0 0.0 0.00 0.00 0.00 41 1010.2
20260507081528 49 82 0.0 0.0 0.00 0.00 0.00 40 1010.1
20260507080036 49 82 0.0 1.7 0.00 0.00 0.00 40 1010.0
20260507074528 49 44 0.0 0.0 0.00 0.00 0.00 43 1010.0
20260507073024 50 44 0.0 0.0 0.00 0.00 0.00 43 1010.1
20260507071549 51 45 0.9 4.3 0.00 0.00 0.00 35 1010.2
20260507070020 52 25 0.0 0.0 0.00 0.00 0.00 29 1010.3
20260507064519 52 25 0.0 0.0 0.00 0.00 0.00 32 1010.1
20260507063016 52 25 0.0 0.0 0.00 0.00 0.00 35 1010.2
20260507061517 52 25 0.0 0.0 0.00 0.00 0.00 35 1010.4
20260507060012 52 25 0.0 0.0 0.00 0.00 0.00 39 1010.1
20260507054511 52 25 0.0 0.0 0.00 0.00 0.00 44 1009.9
20260507053012 52 25 0.0 0.0 0.00 0.00 0.00 47 1009.7
20260507051507 52 25 0.0 0.9 0.00 0.00 0.00 52 1010.2
20260507050005 53 66 0.0 0.9 0.00 0.00 0.00 54 1010.2
20260507044500 54 19 0.0 6.1 0.00 0.00 0.00 56 1010.3
20260507043059 54 50 0.0 0.9 0.00 0.00 0.00 58 1009.9
20260507041555 55 50 0.0 0.0 0.00 0.00 0.00 65 1009.6
20260507040049 56 49 0.0 1.7 0.00 0.00 0.00 76 1009.5
20260507034547 57 79 0.0 2.6 0.00 0.00 0.00 81 1009.3
20260507033050 57 352 0.0 1.7 0.00 0.00 0.00 82 1009.6
20260507031543 57 47 0.0 4.3 0.00 0.00 0.00 81 1009.2
20260507030041 57 27 0.9 3.5 0.00 0.00 0.00 81 1009.3
20260507024542 58 43 0.0 4.3 0.00 0.00 0.00 81 1009.2
20260507023039 58 40 1.7 3.5 0.00 0.00 0.00 81 1009.1
20260507021537 58 69 2.6 6.1 0.00 0.00 0.00 82 1009.0
20260507020040 59 41 0.9 5.2 0.00 0.00 0.00 81 1008.8
20260507014537 59 79 0.9 3.5 0.00 0.00 0.00 79 1009.0
20260507013032 60 85 0.0 2.6 0.00 0.00 0.00 75 1009.0
20260507011537 60 39 0.0 0.9 0.00 0.00 0.00 75 1009.1
20260507010028 60 33 0.9 3.5 0.00 0.00 0.00 78 1008.7
20260507004534 61 360 0.0 1.7 0.00 0.00 0.00 74 1008.6
20260507003022 62 25 0.9 4.3 0.00 0.00 0.00 68 1008.3
20260507001521 63 53 1.7 4.3 0.00 0.00 0.00 42 1008.2
20260507000018 63 332 0.0 1.7 0.00 0.00 0.00 38 1007.5
20260506234519 64 49 0.0 0.9 0.00 0.00 0.00 40 1007.0
20260506233018 64 25 0.0 0.0 0.00 0.00 0.00 46 1006.8
20260506231517 65 26 0.0 0.9 0.00 0.00 0.00 56 1006.8
20260506230016 66 27 0.0 0.9 0.00 0.00 0.00 68 1006.7
20260506224516 66 270 0.0 1.7 0.00 0.00 0.00 76 1006.7
20260506223017 67 276 0.0 2.6 0.00 0.00 0.00 79 1006.6
20260506221515 67 274 0.0 2.6 0.00 0.00 0.00 80 1006.4
20260506220029 67 266 0.0 3.5 0.00 0.00 0.00 80 1006.3
20260506214514 68 252 0.0 2.6 0.00 0.00 0.00 80 1006.2
20260506213013 68 285 0.0 4.3 0.00 0.00 0.00 80 1005.9
20260506211512 68 274 0.0 3.5 0.00 0.00 0.00 80 1005.9
20260506210013 69 292 0.0 2.6 0.00 0.00 0.00 80 1005.7
20260506204511 69 273 0.9 3.5 0.00 0.00 0.00 80 1005.6
20260506203018 67 276 0.0 2.6 0.00 0.00 0.00 76 1005.6
20260506201508 67 278 0.0 3.5 0.00 0.00 0.00 76 1005.8
20260506200008 66 275 0.9 3.5 0.00 0.00 0.00 76 1005.9
20260506194507 66 276 0.0 1.7 0.00 0.00 0.00 77 1005.9
20260506193006 67 291 0.9 2.6 0.00 0.00 0.00 78 1006.0
20260506191505 66 285 0.0 2.6 0.00 0.00 0.00 78 1006.0
20260506190005 67 279 0.9 2.6 0.00 0.00 0.00 78 1006.0
20260506184503 66 287 0.9 3.5 0.00 0.00 0.00 78 1006.2
20260506183005 66 283 0.9 4.3 0.00 0.00 0.00 78 1006.3
20260506181501 66 294 0.9 6.1 0.00 0.00 0.00 75 1006.3
20260506180001 65 302 0.9 5.2 0.00 0.00 0.00 72 1006.4
20260506174501 64 249 2.6 6.1 0.00 0.00 0.00 69 1006.5
20260506173135 64 269 1.7 6.1 0.00 0.00 0.00 63 1006.4
20260506171559 63 280 1.7 4.3 0.00 0.00 0.00 58 1006.4
20260506170100 62 226 0.9 2.6 0.00 0.00 0.00 54 1006.6
20260506164559 62 314 0.9 4.3 0.00 0.00 0.00 52 1006.5
20260506163105 62 275 0.0 5.2 0.00 0.00 0.00 44 1006.5
20260506161559 62 278 1.7 5.2 0.00 0.00 0.00 39 1006.5
20260506160100 62 278 0.0 3.5 0.00 0.00 0.00 35 1006.7
20260506154557 62 276 0.9 6.1 0.00 0.00 0.00 32 1006.6
20260506153058 61 260 0.0 5.2 0.00 0.00 0.00 28 1006.4
20260506151554 61 229 2.6 7.0 0.00 0.00 0.00 30 1006.0
20260506150057 61 284 1.7 4.3 0.00 0.00 0.00 32 1006.8
20260506144603 61 270 0.9 2.6 0.00 0.00 0.00 38 1007.5
20260506143050 61 273 0.0 3.5 0.00 0.00 0.00 43 1007.4
20260506141550 62 270 1.7 7.8 0.00 0.00 0.00 47 1007.1
20260506140047 61 236 0.9 4.3 0.00 0.00 0.00 43 1006.8
20260506134646 61 256 1.7 7.0 0.00 0.00 0.00 53 1006.7
20260506133045 62 297 2.6 7.8 0.00 0.00 0.00 61 1006.8
20260506131539 62 277 2.6 6.1 0.00 0.00 0.00 69 1006.9
20260506130038 63 278 1.7 5.2 0.00 0.00 0.00 70 1007.0
20260506124539 63 269 0.9 4.3 0.00 0.00 0.00 74 1007.0
20260506123036 63 229 1.7 5.2 0.00 0.00 0.00 78 1007.1
20260506121532 63 264 1.7 3.5 0.00 0.00 0.00 79 1007.4
20260506120032 64 266 0.9 2.6 0.00 0.00 0.00 79 1007.5
20260506114527 65 250 0.9 5.2 0.00 0.00 0.00 78 1007.2
20260506113025 65 238 0.0 5.2 0.00 0.00 0.00 74 1006.9
20260506111522 66 252 1.7 6.1 0.00 0.00 0.00 72 1006.7
20260506110022 66 253 1.7 6.1 0.00 0.00 0.00 72 1006.6
20260506104517 66 271 1.7 7.0 0.00 0.00 0.00 70 1006.3
20260506103015 67 292 2.6 7.8 0.00 0.00 0.00 68 1006.2
20260506101514 67 268 1.7 6.1 0.00 0.00 0.00 67 1006.2
20260506100014 67 263 1.7 7.8 0.00 0.00 0.00 67 1006.1
20260506094513 67 200 0.9 3.5 0.00 0.00 0.00 67 1006.1
20260506093011 67 269 0.9 5.2 0.00 0.00 0.00 66 1005.9
20260506091512 67 281 1.7 6.1 0.00 0.00 0.00 66 1006.0
20260506090018 67 273 0.9 5.2 0.00 0.00 0.00 65 1006.3